Location: ????????
(55.0808°N, 38.5463°E)
Time: 02:13:31
(UTC+00:00)

Nimbus 3 Rocket - Pass Details

Date: 22 September 2024
Orbit: 1072 x 1131 km, 99.9° (Epoch: 03 October)

Event Time Altitude Azimuth Distance (km) Brightness Sun altitude
Rises 00:51:50 0° 20° (NNE) 3,925 9.0 -19.8°
Reaches altitude 10° 00:55:47 10° 358° (N) 2,953 7.9 -19.3°
Maximum altitude 00:58:56 14° 329° (NNW) 2,646 7.2 -19.0°
Drops below altitude 10° 01:02:05 10° 300° (WNW) 2,932 7.2 -18.6°
Enters shadow 01:02:46 - 295° (WNW) 3,061 7.3 -18.5°
